Flag for Turkey Weather past 2 weeks in Gaziantep, Turkey

Now
45 °F

Partly cloudy.


Feels Like: 45 °F
Forecast: 46 / 55 °F
Wind: 1 mph from North

Location: Gaziantep Airport

Current Time: Apr 22, 2015 at 2:54:56 AM

Latest Report: Apr 22, 2015 at 1:50 AM


Visibility: N/A

Pressure: 29.77 "Hg

Humidity: 87%

Dew point: 41 °F

Location of GaziantepLocation

Historic Weather in Gaziantep — Graph

°F

Gaziantep temperature yesterday

Maximum temperature yesterday: 64 °F (at 11:50 AM)
Minimum temperature yesterday: 45 °F (at 3:50 AM)
Average temperature yesterday: 54 °F

Past Weeks' High & Low Weather Summary

 TemperatureHumidityPressure
High72 °F (Apr 19, 2:50 PM)94% (Apr 19, 6:50 AM)30.18 "Hg (Apr 19, 6:50 AM)
Low34 °F (Apr 15, 3:20 AM)25% (Apr 17, 1:20 PM)29.65 "Hg (Apr 9, 9:20 AM)
Average54 °F60%29.94 "Hg
* Reported Apr 7 1:20 AM — Apr 22 1:50 AM, Gaziantep, Weather by CustomWeather, © 2015

Note: Actual official high and low records may vary slightly from our data, if they occured in-between our weather recording intervals... More about our weather records

Advertising

Gaziantep weather history for previous 24 hours

 ConditionsComfort  
Time TempWeatherWind HumidityBarometerVisibility
1:50 AM
Wed, Apr 22
45 °FPartly cloudy.1 mph87%29.77 "HgN/A
1:20 AM46 °FPartly cloudy.2 mph87%29.77 "HgN/A
12:50 AM46 °FPartly cloudy.2 mph87%29.80 "HgN/A
11:50 PM
Tue, Apr 21
48 °FPartly cloudy.2 mph82%29.80 "HgN/A
11:20 PM48 °FPartly cloudy.5 mph82%29.80 "HgN/A
10:50 PM46 °FPartly cloudy.No wind87%29.80 "HgN/A
10:20 PM46 °FPartly cloudy.No wind87%29.80 "HgN/A
9:50 PM50 °FPartly cloudy.2 mph76%29.80 "HgN/A
9:20 PM50 °FPartly cloudy.1 mph76%29.80 "HgN/A
8:50 PM50 °FPartly cloudy.6 mph76%29.80 "HgN/A
8:20 PM52 °FPartly cloudy.5 mph72%29.77 "HgN/A
7:50 PM54 °FBroken clouds.8 mph67%29.77 "HgN/A
7:20 PM54 °FBroken clouds.14 mph72%29.74 "HgN/A
6:50 PM57 °FBroken clouds.5 mph59%29.74 "HgN/A
6:20 PM57 °FBroken clouds.14 mph59%29.74 "HgN/A
5:50 PM57 °FBroken clouds.16 mph59%29.71 "HgN/A
5:20 PM59 °FBroken clouds.13 mph55%29.71 "HgN/A
4:50 PM59 °FBroken clouds.15 mph59%29.71 "HgN/A
4:20 PM59 °FBroken clouds.16 mph63%29.71 "HgN/A
3:50 PM64 °FBroken clouds.13 mph60%29.71 "HgN/A
3:20 PM63 °FBroken clouds.17 mph64%29.71 "HgN/A
2:50 PM64 °FBroken clouds.18 mph56%29.68 "HgN/A
2:20 PM63 °FBroken clouds.15 mph64%29.71 "HgN/A
1:50 PM61 °FBroken clouds.20 mph72%29.71 "HgN/A
1:20 PM64 °FBroken clouds.20 mph60%29.68 "HgN/A
12:50 PM64 °FSprinkles. Broken clouds.20 mph60%29.71 "HgN/A
12:20 PM64 °FBroken clouds.14 mph60%29.71 "HgN/A
11:50 AM64 °FBroken clouds.15 mph60%29.71 "HgN/A
11:20 AM63 °FBroken clouds.14 mph59%29.74 "HgN/A
10:50 AM61 °FBroken clouds.14 mph68%29.74 "HgN/A
10:20 AM61 °FBroken clouds.12 mph68%29.74 "HgN/A
9:50 AM59 °FBroken clouds.12 mph72%29.74 "HgN/A
9:20 AM59 °FBroken clouds.9 mph72%29.74 "HgN/A
8:50 AM57 °FScattered clouds.10 mph77%29.74 "HgN/A
8:20 AM57 °FScattered clouds.8 mph77%29.74 "HgN/A
7:50 AM54 °FPassing clouds.5 mph82%29.71 "HgN/A
7:20 AM50 °FPassing clouds.No wind88%29.71 "HgN/A
6:50 AM48 °FPassing clouds.No wind82%29.71 "HgN/A
6:20 AM45 °FPassing clouds.5 mph81%29.71 "HgN/A
5:50 AM45 °FPassing clouds.No wind81%29.68 "HgN/A
5:20 AM45 °FPassing clouds.No wind76%29.71 "HgN/A
4:50 AM45 °FPassing clouds.1 mph71%29.71 "HgN/A
4:20 AM45 °FPassing clouds.2 mph76%29.71 "HgN/A
3:50 AM45 °FPassing clouds.3 mph76%29.71 "HgN/A
3:20 AM46 °FPassing clouds.No wind71%29.71 "HgN/A
2:50 AM46 °FPassing clouds.No wind76%29.71 "HgN/A
2:20 AM48 °FPassing clouds.No wind66%29.71 "HgN/A
Weather by CustomWeather, © 2015

See weather overviewHow to use our weather pages